Home > Weather > Resolute Bay > Past weeks

Flag for Canada Weather for the Past 2 Weeks in Resolute Bay, Nunavut, Canada

Now
16 °F

Partly sunny.


Feels Like: 4 °F
Forecast: 16 / 29 °F
Wind: 9 mph from Southeast

Location: Resolute

Current Time: May 5, 2016 at 9:47:24 PM

Latest Report: May 5, 2016 at 9:00 PM


Visibility: 15 mi

Pressure: 30.20 "Hg

Humidity: 93%

Dew Point: 14 °F

Location of Resolute BayLocation

Historic Weather in Resolute Bay — Graph

°F

Resolute Bay Temperature Yesterday

Maximum temperature yesterday: 21 °F (at 2:00 PM)
Minimum temperature yesterday: 7 °F (at 8:00 AM)
Average temperature yesterday: 16 °F

High & Low Weather Summary for the Past Weeks

 TemperatureHumidityPressure
High21 °F (May 4, 2:00 PM)93% (May 5, 2:00 AM)30.56 "Hg (May 5, 2:00 AM)
Low-15 °F (Apr 30, 4:00 AM)60% (Apr 23, 8:00 AM)29.99 "Hg (May 2, 2:00 AM)
Average1 °F78%30.28 "Hg
* Reported Apr 20 8:00 PM — May 5 8:00 PM, Resolute Bay, Weather by CustomWeather, © 2016

Note: Actual official high and low records may vary slightly from our data, if they occured in-between our weather recording intervals... More about our weather records

Advertising

Resolute Bay Weather History for the Previous 24 Hours

Scroll right to see more
 ConditionsComfort  
Time TempWeatherWind HumidityBarometerVisibility
8:00 PM
Thu, May 5
18 °FPassing clouds.6 mph93%30.21 "Hg15 mi
7:00 PM19 °FPassing clouds.10 mph86%30.21 "Hg15 mi
6:00 PM19 °FPassing clouds.9 mph86%30.21 "Hg15 mi
5:00 PM21 °FPassing clouds.9 mph86%30.21 "Hg10 mi
4:00 PM21 °FPassing clouds.9 mph86%30.21 "Hg10 mi
3:00 PM21 °FScattered clouds.10 mph86%30.21 "Hg10 mi
2:00 PM21 °FPassing clouds.10 mph86%30.21 "Hg10 mi
1:00 PM19 °FPartly sunny.14 mph93%30.21 "Hg10 mi
12:00 PM19 °FPartly sunny.20 mph86%30.20 "Hg10 mi
11:00 AM19 °FPartly sunny.20 mph86%30.20 "Hg9 mi
10:00 AM19 °FPartly sunny.18 mph86%30.20 "Hg10 mi
9:00 AM19 °FScattered clouds.17 mph86%30.21 "Hg15 mi
8:00 AM19 °FPartly sunny.16 mph86%30.21 "Hg15 mi
7:00 AM19 °FScattered clouds.15 mph86%30.21 "Hg15 mi
6:00 AM19 °FPartly sunny.17 mph86%30.21 "Hg15 mi
5:00 AM19 °FLow clouds.17 mph86%30.21 "Hg15 mi
4:00 AM19 °FLow clouds.18 mph86%30.21 "Hg15 mi
3:00 AM19 °FLow clouds.20 mph86%30.20 "Hg15 mi
2:00 AM19 °FLow clouds.20 mph93%30.19 "Hg15 mi
1:00 AM19 °FOvercast.15 mph86%30.20 "Hg15 mi
12:00 AM19 °FOvercast.17 mph86%30.21 "Hg15 mi
11:00 PM
Wed, May 4
19 °FOvercast.20 mph86%30.19 "Hg15 mi
10:00 PM19 °FOvercast.20 mph86%30.19 "Hg15 mi
9:00 PM19 °FOvercast.16 mph86%30.19 "Hg15 mi
Weather by CustomWeather, © 2016

See weather overviewHow to use our weather pages